Time,TemperatureF,DewpointF,PressureIn,WindDirection,WindDirectionDegrees,WindSpeedMPH,WindSpeedGustMPH,Humidity,HourlyPrecipIn,Conditions,Clouds,dailyrainin,SolarRadiationWatts/m^2,SoftwareType,DateUTC
2014-04-18 00:23:00,38.0,31.0,-100.00,ENE,78,6.0,13.0,75,0.00,,,0.00,1.000000,,2014-04-18 04:23:00,
2014-04-18 00:33:00,38.0,31.0,-100.00,ENE,78,6.0,13.0,75,0.00,,,0.00,1.000000,,2014-04-18 04:33:00,
2014-04-18 00:43:00,38.0,31.0,-100.00,ENE,78,6.0,13.0,75,0.00,,,0.00,1.000000,,2014-04-18 04:43:00,
2014-04-18 00:54:00,38.0,31.0,-100.00,ENE,78,6.0,13.0,75,0.00,,,0.00,1.000000,,2014-04-18 04:54:00,
2014-04-18 01:22:00,36.0,29.0,-100.00,South,191,3.0,11.0,76,0.00,,,0.00,1.000000,,2014-04-18 05:22:00,
2014-04-18 01:33:00,36.0,29.0,-100.00,South,191,3.0,11.0,76,0.00,,,0.00,1.000000,,2014-04-18 05:33:00,
2014-04-18 01:43:00,36.0,29.0,-100.00,South,191,3.0,11.0,76,0.00,,,0.00,1.000000,,2014-04-18 05:43:00,
2014-04-18 01:52:00,36.0,29.0,-100.00,South,191,3.0,11.0,76,0.00,,,0.00,1.000000,,2014-04-18 05:52:00,
2014-04-18 02:22:00,32.0,29.0,-100.00,North,-999,0.0,6.0,88,0.00,,,0.00,1.000000,,2014-04-18 06:22:00,
2014-04-18 02:32:00,32.0,29.0,-100.00,North,-999,0.0,6.0,88,0.00,,,0.00,1.000000,,2014-04-18 06:32:00,
2014-04-18 02:42:00,32.0,29.0,-100.00,North,-999,0.0,6.0,88,0.00,,,0.00,1.000000,,2014-04-18 06:42:00,
2014-04-18 02:52:00,32.0,29.0,-100.00,North,-999,0.0,6.0,88,0.00,,,0.00,1.000000,,2014-04-18 06:52:00,
2014-04-18 03:22:00,33.0,31.0,-100.00,ENE,78,7.0,9.0,93,0.00,,,0.00,1.000000,,2014-04-18 07:22:00,
2014-04-18 03:32:00,33.0,31.0,-100.00,ENE,78,7.0,9.0,93,0.00,,,0.00,1.000000,,2014-04-18 07:32:00,
2014-04-18 03:42:00,33.0,31.0,-100.00,ENE,78,7.0,9.0,93,0.00,,,0.00,1.000000,,2014-04-18 07:42:00,
2014-04-18 03:52:00,33.0,31.0,-100.00,ENE,78,7.0,9.0,93,0.00,,,0.00,1.000000,,2014-04-18 07:52:00,
2014-04-18 04:22:00,34.0,32.0,-100.00,ENE,69,8.0,12.0,92,0.00,,,0.00,1.000000,,2014-04-18 08:22:00,
2014-04-18 04:32:00,34.0,32.0,-100.00,ENE,69,8.0,12.0,92,0.00,,,0.00,1.000000,,2014-04-18 08:32:00,
2014-04-18 04:42:00,34.0,32.0,-100.00,ENE,69,8.0,12.0,92,0.00,,,0.00,1.000000,,2014-04-18 08:42:00,
2014-04-18 04:52:00,34.0,32.0,-100.00,ENE,69,8.0,12.0,92,0.00,,,0.00,1.000000,,2014-04-18 08:52:00,
2014-04-18 05:22:00,33.0,31.0,-100.00,NE,46,4.0,12.0,92,0.00,,,0.00,1.000000,,2014-04-18 09:22:00,
2014-04-18 05:33:00,33.0,31.0,-100.00,NE,46,4.0,12.0,92,0.00,,,0.00,1.000000,,2014-04-18 09:33:00,
2014-04-18 05:43:00,33.0,31.0,-100.00,NE,46,4.0,12.0,92,0.00,,,0.00,1.000000,,2014-04-18 09:43:00,
2014-04-18 05:54:00,33.0,31.0,-100.00,NE,46,4.0,12.0,92,0.00,,,0.00,1.000000,,2014-04-18 09:54:00,
2014-04-18 06:24:00,32.0,29.0,-100.00,ENE,76,4.0,13.0,90,0.00,,,0.00,1.000000,,2014-04-18 10:24:00,
2014-04-18 06:33:00,32.0,29.0,-100.00,ENE,76,4.0,13.0,90,0.00,,,0.00,1.000000,,2014-04-18 10:33:00,
2014-04-18 06:43:00,32.0,29.0,-100.00,ENE,76,4.0,13.0,90,0.00,,,0.00,1.000000,,2014-04-18 10:43:00,
2014-04-18 06:53:00,32.0,29.0,-100.00,ENE,76,4.0,13.0,90,0.00,,,0.00,1.000000,,2014-04-18 10:53:00,
2014-04-18 07:22:00,32.0,29.0,-100.00,East,101,2.0,8.0,90,0.00,,,0.00,11.000000,,2014-04-18 11:22:00,
2014-04-18 07:34:00,32.0,29.0,-100.00,East,101,2.0,8.0,90,0.00,,,0.00,11.000000,,2014-04-18 11:34:00,
2014-04-18 07:43:00,32.0,29.0,-100.00,East,101,2.0,8.0,90,0.00,,,0.00,11.000000,,2014-04-18 11:43:00,
2014-04-18 07:53:00,32.0,29.0,-100.00,East,101,2.0,8.0,90,0.00,,,0.00,11.000000,,2014-04-18 11:53:00,
2014-04-18 08:22:00,33.0,30.0,-100.00,ENE,62,3.0,7.0,87,0.00,,,0.00,93.000000,,2014-04-18 12:22:00,
2014-04-18 08:32:00,33.0,30.0,-100.00,ENE,62,3.0,7.0,87,0.00,,,0.00,93.000000,,2014-04-18 12:32:00,
2014-04-18 08:42:00,33.0,30.0,-100.00,ENE,62,3.0,7.0,87,0.00,,,0.00,93.000000,,2014-04-18 12:42:00,
2014-04-18 08:52:00,33.0,30.0,-100.00,ENE,62,3.0,7.0,87,0.00,,,0.00,93.000000,,2014-04-18 12:52:00,
2014-04-18 09:22:00,36.0,30.0,-100.00,East,99,5.0,11.0,80,0.00,,,0.00,261.000000,,2014-04-18 13:22:00,
2014-04-18 09:32:00,36.0,30.0,-100.00,East,99,5.0,11.0,80,0.00,,,0.00,261.000000,,2014-04-18 13:32:00,
2014-04-18 09:42:00,36.0,30.0,-100.00,East,99,5.0,11.0,80,0.00,,,0.00,261.000000,,2014-04-18 13:42:00,
2014-04-18 09:52:00,36.0,30.0,-100.00,East,99,5.0,11.0,80,0.00,,,0.00,261.000000,,2014-04-18 13:52:00,
2014-04-18 17:22:00,51.0,33.0,-100.00,SSE,149,6.0,11.0,50,-99.99,,,0.00,375.000000,,2014-04-18 21:22:00,
2014-04-18 17:33:00,51.0,33.0,-100.00,SSE,149,6.0,11.0,50,-99.99,,,0.00,375.000000,,2014-04-18 21:33:00,
2014-04-18 17:43:00,51.0,33.0,-100.00,SSE,149,6.0,11.0,50,-99.99,,,0.00,375.000000,,2014-04-18 21:43:00,
2014-04-18 17:54:00,51.0,33.0,-100.00,SSE,149,6.0,11.0,50,-99.99,,,0.00,375.000000,,2014-04-18 21:54:00,
2014-04-18 18:24:00,50.0,34.0,-100.00,SSE,148,4.0,13.0,53,0.00,,,0.00,237.000000,,2014-04-18 22:24:00,
2014-04-18 18:33:00,50.0,34.0,-100.00,SSE,148,4.0,13.0,53,0.00,,,0.00,237.000000,,2014-04-18 22:33:00,
2014-04-18 18:43:00,50.0,34.0,-100.00,SSE,148,4.0,13.0,53,0.00,,,0.00,237.000000,,2014-04-18 22:43:00,
2014-04-18 18:53:00,50.0,34.0,-100.00,SSE,148,4.0,13.0,53,0.00,,,0.00,237.000000,,2014-04-18 22:53:00,
2014-04-18 19:22:00,49.0,35.0,-100.00,East,85,4.0,11.0,58,0.00,,,0.00,109.000000,,2014-04-18 23:22:00,
2014-04-18 19:34:00,49.0,35.0,-100.00,East,85,4.0,11.0,58,0.00,,,0.00,109.000000,,2014-04-18 23:34:00,
2014-04-18 19:43:00,49.0,35.0,-100.00,East,85,4.0,11.0,58,0.00,,,0.00,109.000000,,2014-04-18 23:43:00,
2014-04-18 19:52:00,49.0,35.0,-100.00,East,85,4.0,11.0,58,0.00,,,0.00,109.000000,,2014-04-18 23:52:00,
2014-04-18 20:22:00,47.0,35.0,-100.00,East,96,2.0,8.0,63,0.00,,,0.00,24.000000,,2014-04-19 00:22:00,
2014-04-18 20:32:00,47.0,35.0,-100.00,East,96,2.0,8.0,63,0.00,,,0.00,24.000000,,2014-04-19 00:32:00,
2014-04-18 20:42:00,47.0,35.0,-100.00,East,96,2.0,8.0,63,0.00,,,0.00,24.000000,,2014-04-19 00:42:00,
2014-04-18 20:52:00,47.0,35.0,-100.00,East,96,2.0,8.0,63,0.00,,,0.00,24.000000,,2014-04-19 00:52:00,
2014-04-18 21:22:00,44.0,36.0,-100.00,SW,229,2.0,6.0,72,0.00,,,0.00,1.000000,,2014-04-19 01:22:00,